Regional Weather Roundup
Issued by NWS Cleveland, OH

Home | Current Version | Previous Version | Graphics & Text | Print | Product List | Glossary On
Versions: 1 2 3 4 5 6 7 8 9 10 11 12 13 14 15 16 17 18 19 20 21 22 23 24 25 26 27 28 29 30 31 32 33 34 35 36 37 38 39 40 41 42 43 44 45 46 47 48 49 50
000
ASUS41 KCLE 111400
RWRCLE
OHIO REGIONAL WEATHER ROUNDUP
NATIONAL WEATHER SERVICE WILMINGTON, OH
900 AM EST MON DEC 11 2017

NOTE: "FAIR" INDICATES FEW OR NO CLOUDS BELOW 12,000 FEET WITH NO
SIGNIFICANT WEATHER AND/OR OBSTRUCTIONS TO VISIBILITY.

OHZ001>008-015>018-024>027-034-035-043-044-111500-
   NORTHWEST OHIO

CITY           SKY/WX    TMP DP  RH WIND       PRES   REMARKS
DEFIANCE       FLURRIES  28  23  81 S7        30.03F WCI  21
FINDLAY        CLOUDY    26  20  77 S5        30.04F WCI  20
TOLEDO EXPRESS CLOUDY    25  23  92 SE3       30.04S
TOLEDO EXEC    CLOUDY    27  22  81 S6        30.06F WCI  20
LIMA           CLOUDY    29  23  78 SW6       30.03F WCI  23
$$

OHZ009>014-019>023-028>033-038-089-111500-
   NORTHEAST OHIO

CITY           SKY/WX    TMP DP  RH WIND       PRES   REMARKS
CLE-HOPKINS    CLOUDY    29  21  72 SW8       30.07R WCI  21
CLE-LAKEFRONT  CLOUDY    31  18  58 SW12      30.05R WCI  22
CUY CO. ARPT   CLOUDY    30  21  69 SW9       30.04R WCI  22
LORAIN-ELYRIA  FAIR      24  17  74 W7        30.06R WCI  16
ASHTABULA      CLOUDY    28  20  71 SW5       30.03R WCI  23
AKRON-CANTON   CLOUDY    29  18  63 W7        30.03S WCI  22
WOOSTER        NOT AVBL
MANSFIELD      FAIR      24  21  88 SW5       30.04R WCI  18
YOUNGSTOWN     CLOUDY    29  20  69 SW7       30.01S WCI  22
$$

OHZ042-051>053-060>062-070>072-077>081-111500-
  SOUTHWEST OHIO

CITY           SKY/WX    TMP DP  RH WIND       PRES   REMARKS
CINC-COVINGTON CLOUDY    27  25  92 S5        30.05F WCI  22
CINC-LUNKEN    PTSUNNY   27  25  92 CALM      30.10F
HAMILTON       CLOUDY    26  24  92 CALM      30.08F
DAYTON         NOT AVBL
WRIGHT-PAT AFB CLOUDY    30  23  77 S3        30.06S
DAYTON GENERAL CLOUDY    26  22  84 CALM      30.05F
WILMINGTON     FAIR      26  24  92 S3        30.05S
$$

OHZ036-037-039>041-045>050-054>059-063>069-073>076-082>088-111500-
  CENTRAL AND SOUTHEAST OHIO

CITY           SKY/WX    TMP DP  RH WIND       PRES   REMARKS
COLUMBUS       CLOUDY    31  21  66 SW6       30.06F WCI  25
OSU AIRPORT    CLOUDY    31  23  72 SW8       30.06S WCI  23
BOLTON FIELD   PTSUNNY   30  21  69 SW3       30.07F
RICKENBACK AFB NOT AVBL
NEWARK         CLOUDY    31  20  63 SW5       30.06S WCI  26
MARION         FAIR      25  19  78 S7        30.04F WCI  17
LANCASTER      PTSUNNY   30  21  69 SW6       30.07F WCI  24
ZANESVILLE     CLOUDY    31  20  63 W6        30.06F WCI  25
NEW PHILLY     CLOUDY    30  21  69 S3        30.06S
$$




USA.gov is the U.S. government's official web portal to all federal, state and local government web resources and services.